Weather History for Fort Stockton, TX

Change the Weather History Date:

Thursday, July 3, 2014

  Actual Average Record
Temperature  
Mean Temperature 80 °F -  
Max Temperature 91 °F 93 °F 107 °F (2005)
Min Temperature 70 °F 68 °F 64 °F (2001)
Cooling Degree Days 16    
Growing Degree Days 30 (Base 50)    
Moisture  
Dew Point 56 °F    
Average Humidity 46    
Maximum Humidity 73    
Minimum Humidity 24    
Precipitation  
Precipitation 0.00 in - - ()
Sea Level Pressure  
Sea Level Pressure 29.99 in    
Wind  
Wind Speed 11 mph (SE)    
Max Wind Speed 18 mph    
Max Gust Speed 32 mph    
Visibility 10 miles    
Events      
Averages and records for this station are not official NWS values.
T = Trace of Precipitation, MM = Missing Value Source: NWS Daily Summary

Daily Weather History Graph

Daily Weather History Graph

Search for Another Location

Airport:

Trip Planner

Search our weather history database for the weather conditions in past years. The results will help you decide how hot, cold, wet, or windy it might be!

Date:

Astronomy

Jul. 03, 2014 Rise Set
Actual Time 6:52 AM CDT 8:58 PM CDT
Civil Twilight 6:25 AM CDT 9:26 PM CDT
Nautical Twilight 5:51 AM CDT 10:00 PM CDT
Astronomical Twilight 5:15 AM CDT 10:36 PM CDT
Moon 12:29 PM CDT (7/3) 12:15 AM CDT (7/3)
Length of Visible Light 15h 01m
Length of Day
14h 06m
Waxing Crescent, 33% of the Moon is Illuminated
Jul 3
Waxing Crescent
Jul 5
First Quarter
Jul 12
Full
Jul 18
Last Quarter
Jul 26
New

Hourly Weather History & Observations

Time (CDT) Temp. Heat Index Dew Point Humidity Pressure Visibility Wind Dir Wind Speed Gust Speed Precip Events Conditions
12:53 AM 77.0 °F - 60.1 °F 56% 29.98 in 10.0 mi ESE 9.2 mph - N/A   Clear
1:53 AM 75.0 °F - 61.0 °F 62% 29.99 in 10.0 mi ESE 8.1 mph - N/A   Clear
2:53 AM 75.0 °F - 60.1 °F 60% 29.98 in 10.0 mi ESE 11.5 mph - N/A   Clear
3:53 AM 73.9 °F - 59.0 °F 59% 29.98 in 10.0 mi SE 11.5 mph - N/A   Clear
4:53 AM 73.0 °F - 60.1 °F 64% 29.98 in 10.0 mi SSE 8.1 mph - N/A   Clear
5:53 AM 72.0 °F - 60.1 °F 66% 30.00 in 10.0 mi SE 8.1 mph - N/A   Clear
6:53 AM 70.0 °F - 61.0 °F 73% 30.02 in 10.0 mi SE 6.9 mph - N/A   Clear
7:53 AM 71.1 °F - 61.0 °F 70% 30.03 in 10.0 mi SSE 8.1 mph - N/A   Clear
9:53 AM 78.1 °F - 61.0 °F 56% 30.04 in 10.0 mi South 10.4 mph - N/A   Clear
10:53 AM 82.0 °F 82.4 °F 60.1 °F 47% 30.03 in 10.0 mi SE 11.5 mph - N/A   Clear
11:53 AM 84.9 °F 84.2 °F 57.9 °F 40% 30.02 in 10.0 mi SE 12.7 mph 24.2 mph N/A   Partly Cloudy
12:53 PM 89.1 °F 87.3 °F 55.9 °F 32% 30.00 in 10.0 mi SSE 10.4 mph - N/A   Clear
2:53 PM 91.0 °F 88.5 °F 53.1 °F 27% 29.98 in 10.0 mi SE 15.0 mph 27.6 mph N/A   Partly Cloudy
3:53 PM 91.0 °F - 50.0 °F 24% 29.96 in 10.0 mi ESE 17.3 mph 32.2 mph N/A   Clear
4:53 PM 91.0 °F - 50.0 °F 24% 29.95 in 10.0 mi ESE 17.3 mph 31.1 mph N/A   Clear
5:53 PM 90.0 °F - 48.0 °F 24% 29.94 in 10.0 mi SE 18.4 mph 28.8 mph N/A   Clear
7:53 PM 87.1 °F - 46.0 °F 24% 29.94 in 10.0 mi SE 16.1 mph 27.6 mph N/A   Clear
8:53 PM 84.0 °F - 48.9 °F 29% 29.96 in 10.0 mi SE 16.1 mph 25.3 mph N/A   Clear
9:53 PM 82.0 °F 81.4 °F 55.0 °F 39% 29.97 in 10.0 mi SE 15.0 mph 24.2 mph N/A   Clear
10:53 PM 80.1 °F 80.2 °F 55.9 °F 43% 30.00 in 10.0 mi SE 16.1 mph - N/A   Clear
11:53 PM 79.0 °F - 55.0 °F 44% 30.00 in 10.0 mi SE 16.1 mph 25.3 mph N/A   Clear